Location: Home
(42.5358°N, 72.7383°W)
Time: 01:31:08
(UTC-04:00)

DELTA 1 DEB - Pass Details

Date: 26 June 2022
Orbit: 600 x 774 km, 98.5° (Epoch: 16 August)

Event Time Altitude Azimuth Distance (km) Brightness Sun altitude
Exits shadow 21:58:40 17° 124° (SE) 1,879 ? -12.7°
Maximum altitude 22:02:00 35° 68° (ENE) 1,233 ? -13.1°
Drops below altitude 10° 22:06:33 10° 4° (N) 2,288 ? -13.7°
Sets 22:08:58 0° 356° (N) 3,197 ? -13.9°
